Location: Aufkirchen
(47.9603°N, 11.3653°E)
Time: 22:41:01
(UTC+02:00)

Altair - Pass Details

Date: 06 August 2021
Orbit: 1501 x 1682 km, 47.2° (Epoch: 22 September)

Event Time Altitude Azimuth Distance (km) Brightness Sun altitude
Exits shadow 23:36:28 20° 111° (ESE) 3,055 8.6 -21.5°
Drops below altitude 10° 23:40:36 10° 86° (E) 3,717 9.3 -21.8°
Sets 23:44:31 0° 71° (ENE) 4,680 10.0 -22.1°
